Flag for U.S.A. Weather past 2 weeks in St. Croix Falls, Wisconsin, U.S.A.

Now
69 °F

Overcast.


Feels Like: 69 °F
Forecast: 63 / 78 °F
Wind: 3 mph from Southeast

Location: L O Simenstad Municipal Airport

Current Time: Jul 24, 2014 at 11:25:32 PM

Latest Report: Jul 24, 2014 at 10:55 PM


Visibility: 10 mi

Pressure: 29.98 "Hg

Humidity: 75%

Dew point: 61 °F

Location of St. Croix FallsLocation

Historic Weather in St. Croix Falls — Graph

°F

St. Croix Falls temperature yesterday

Maximum temperature yesterday: 79 °F (at 2:55 PM)
Minimum temperature yesterday: 53 °F (at 5:55 AM)
Average temperature yesterday: 69 °F

Past Weeks' High & Low Weather Summary

 TemperatureHumidityPressure
High88 °F (Jul 21, 2:55 PM)100% (Jul 10, 12:55 AM)30.29 "Hg (Jul 10, 12:55 AM)
Low46 °F (Jul 16, 4:55 AM)36% (Jul 13, 4:55 PM)29.80 "Hg (Jul 22, 3:55 AM)
Average69 °F74%30.02 "Hg
* Reported Jul 9 10:15 PM — Jul 24 10:15 PM, St. Croix Falls, Weather by CustomWeather, © 2014

Note: Actual official high and low records may vary slightly from our data, if they occured in-between our weather recording intervals... More about our weather records

Advertising

St. Croix Falls weather history for previous 24 hours

 ConditionsComfort  
Time TempWeatherWind HumidityBarometerVisibility
10:15 PM
Jul 24
70 °FOvercast.No wind74%29.99 "Hg10 mi
9:55 PM70 °FOvercast.No wind73%29.98 "Hg10 mi
9:35 PM69 °FOvercast.5 mph74%29.97 "Hg10 mi
9:15 PM70 °FPartly sunny.3 mph70%29.97 "Hg10 mi
8:55 PM71 °FScattered clouds.5 mph69%29.96 "Hg10 mi
8:35 PM71 °FSunny.3 mph67%29.96 "Hg10 mi
8:15 PM72 °FScattered clouds.5 mph66%29.96 "Hg10 mi
7:55 PM74 °FScattered clouds.6 mph61%29.96 "Hg10 mi
7:15 PM76 °FSunny.8 mph55%29.97 "Hg10 mi
6:55 PM77 °FSunny.8 mph55%29.96 "Hg10 mi
6:35 PM78 °FSunny.10 mph54%29.96 "Hg10 mi
6:15 PM76 °FSunny.9 mph57%29.95 "Hg10 mi
5:55 PM76 °FSunny.8 mph58%29.94 "Hg10 mi
5:35 PM75 °FSunny.10 mph58%29.93 "Hg10 mi
5:15 PM76 °FSunny.13 mph59%29.94 "Hg10 mi
4:55 PM76 °FScattered clouds.10 mph56%30.00 "Hg10 mi
4:35 PM77 °FScattered clouds.8 mph52%30.04 "Hg10 mi
4:15 PM78 °FScattered clouds.8 mph50%30.06 "Hg10 mi
3:55 PM78 °FSunny.9 mph48%30.08 "Hg10 mi
3:35 PM78 °FScattered clouds.6 mph47%30.09 "Hg10 mi
3:15 PM78 °FScattered clouds.7 mph46%30.10 "Hg10 mi
2:55 PM79 °FScattered clouds.10 mph43%30.10 "Hg10 mi
2:35 PM79 °FScattered clouds.7 mph42%30.07 "Hg10 mi
2:15 PM79 °FScattered clouds.12 mph43%30.07 "Hg10 mi
1:55 PM79 °FScattered clouds.9 mph44%30.08 "Hg10 mi
1:35 PM78 °FScattered clouds.9 mph43%30.08 "Hg10 mi
1:15 PM79 °FPartly sunny.9 mph41%30.10 "Hg10 mi
12:55 PM77 °FScattered clouds.12 mph45%30.11 "Hg10 mi
12:35 PM78 °FSunny.10 mph41%30.12 "Hg10 mi
12:15 PM78 °FScattered clouds.7 mph42%30.13 "Hg10 mi
11:55 AM78 °FBroken clouds.9 mph46%30.13 "Hg10 mi
11:35 AM77 °FScattered clouds.9 mph47%30.14 "Hg10 mi
11:15 AM76 °FSunny.8 mph51%30.15 "Hg10 mi
10:55 AM75 °FSunny.6 mph53%30.16 "Hg10 mi
10:35 AM75 °FSunny.8 mph54%30.16 "Hg10 mi
10:15 AM74 °FSunny.8 mph56%30.17 "Hg10 mi
9:55 AM73 °FSunny.9 mph57%30.17 "Hg10 mi
9:15 AM72 °FSunny.7 mph60%30.17 "Hg10 mi
8:35 AM69 °FSunny.3 mph67%30.18 "Hg10 mi
8:15 AM66 °FSunny.No wind79%30.18 "Hg10 mi
7:55 AM65 °FSunny.3 mph83%30.17 "Hg10 mi
7:35 AM63 °FSunny.3 mph90%30.17 "Hg10 mi
7:15 AM61 °FSunny.No wind95%30.18 "Hg10 mi
6:55 AM59 °FSunny.3 mph97%30.19 "Hg10 mi
6:35 AM56 °FClear.3 mph100%30.19 "Hg10 mi
6:15 AM54 °FClear.No wind100%30.20 "Hg10 mi
5:55 AM54 °FPassing clouds.No wind100%30.20 "Hg10 mi
5:35 AM55 °FPassing clouds.No wind100%30.20 "Hg10 mi
5:15 AM55 °FPassing clouds.No wind100%30.20 "Hg10 mi
4:55 AM55 °FPassing clouds.No wind100%30.20 "Hg10 mi
4:35 AM56 °FClear.No wind99%30.21 "Hg10 mi
4:15 AM56 °FClear.No wind100%30.20 "Hg10 mi
3:55 AM56 °FClear.No wind100%30.20 "Hg10 mi
3:35 AM58 °FClear.No wind100%30.20 "Hg10 mi
3:15 AM57 °FClear.3 mph100%30.20 "Hg10 mi
2:55 AM55 °FPassing clouds.No wind100%30.20 "Hg10 mi
2:35 AM57 °FPassing clouds.No wind97%30.20 "Hg10 mi
2:15 AM58 °FPassing clouds.No wind98%30.20 "Hg10 mi
1:55 AM60 °FClear.No wind95%30.20 "Hg10 mi
1:35 AM58 °FClear.No wind100%30.20 "Hg10 mi
1:28 AM57 °FClear.No wind100%30.20 "Hg10 mi
1:15 AM58 °FClear.No wind95%30.20 "Hg10 mi
12:35 AM60 °FClear.No wind94%30.19 "Hg10 mi
12:15 AM60 °FClear.No wind95%30.19 "Hg10 mi
11:55 PM
Jul 23
60 °FPassing clouds.No wind94%30.19 "Hg10 mi
11:35 PM60 °FPassing clouds.No wind94%30.19 "Hg10 mi
11:15 PM61 °FClear.No wind89%30.19 "Hg10 mi
Weather by CustomWeather, © 2014

See weather overviewHow to use our weather pages